EDT,Max TemperatureF,Mean TemperatureF,Min TemperatureF,Max Dew PointF,MeanDew PointF,Min DewpointF,Max Humidity, Mean Humidity, Min Humidity, Max Sea Level PressureIn, Mean Sea Level PressureIn, Min Sea Level PressureIn, Max VisibilityMiles, Mean VisibilityMiles, Min VisibilityMiles, Max Wind SpeedMPH, Mean Wind SpeedMPH, Max Gust SpeedMPH,PrecipitationIn, CloudCover, Events, WindDirDegrees
2013-8-1,90,83,76,75,73,69,94,73,59,30.04,29.99,29.95,10,10,10,14,7,18,T,0,,133
2013-8-2,90,83,75,77,74,72,94,77,61,30.05,30.00,29.94,10,10,10,12,5,15,0.01,2,Rain,223
2013-8-3,92,85,77,76,74,73,91,72,56,30.10,30.06,30.01,10,10,10,14,5,20,T,1,Rain,237
2013-8-4,90,86,82,77,75,74,79,72,64,30.09,30.05,30.01,10,10,10,17,8,22,0.01,2,Rain,269
2013-8-5,92,87,81,77,76,75,85,70,60,30.04,29.99,29.95,10,10,10,16,9,21,0.00,1,,289
2013-8-6,90,83,76,78,76,73,94,80,68,29.98,29.94,29.89,10,9,2,25,4,28,0.73,2,Rain,330
2013-8-7,92,83,73,79,75,70,94,85,60,29.96,29.93,29.90,10,8,1,28,5,35,0.90,3,Rain-Thunderstorm,105
2013-8-8,92,84,76,76,74,72,94,79,56,30.01,29.95,29.92,10,10,2,30,8,37,0.15,2,Rain-Thunderstorm,127
2013-8-9,92,83,73,76,73,72,94,82,52,30.05,30.01,29.96,10,9,1,35,6,43,0.95,3,Rain-Thunderstorm,97
2013-8-10,92,83,74,76,74,72,94,76,59,30.11,30.07,30.03,10,10,10,15,7,20,0.06,1,Thunderstorm,98
2013-8-11,93,84,75,76,75,73,94,74,56,30.14,30.10,30.04,10,10,10,15,7,17,0.00,1,,95
2013-8-12,93,85,76,78,75,73,94,75,56,30.12,30.06,30.00,10,10,10,14,6,17,0.00,1,,59
2013-8-13,91,83,75,78,74,72,94,73,56,30.04,30.00,29.94,10,10,10,14,6,17,0.01,1,Rain-Thunderstorm,224
2013-8-14,91,85,78,79,75,71,91,73,59,30.00,29.97,29.93,10,10,10,14,6,18,0.00,2,Thunderstorm,218
2013-8-15,88,82,76,75,74,72,88,74,59,30.05,29.98,29.95,10,10,10,13,7,18,T,2,Rain-Thunderstorm,186
2013-8-16,90,84,77,76,75,72,91,71,63,30.05,30.01,29.96,10,10,10,26,7,39,0.32,3,Rain-Thunderstorm,225
2013-8-17,92,84,75,78,74,70,94,80,56,30.07,30.02,29.98,10,9,2,23,5,29,0.31,2,Rain-Thunderstorm,130
2013-8-18,92,83,74,77,74,72,94,82,56,30.11,30.04,30.00,10,9,2,21,8,28,0.96,4,Rain-Thunderstorm,133
2013-8-19,93,84,75,77,73,70,94,82,56,30.06,30.01,29.96,10,9,0,23,7,31,0.81,3,Rain-Thunderstorm,85
2013-8-20,93,84,75,76,73,69,94,81,52,30.06,30.02,29.99,10,9,1,20,6,28,0.28,2,Rain-Thunderstorm,71
2013-8-21,94,84,74,76,74,71,94,83,49,30.08,30.04,29.98,10,9,1,35,7,44,0.53,3,Rain-Thunderstorm,77
2013-8-22,92,83,74,77,74,71,94,84,56,30.06,30.01,29.96,10,9,0,18,7,28,1.13,4,Fog-Rain-Thunderstorm,85
2013-8-23,91,83,74,77,74,72,100,83,59,30.01,29.98,29.95,10,9,0,20,6,29,1.65,3,Fog-Rain-Thunderstorm,77
2013-8-24,91,83,75,77,74,72,94,82,56,30.10,30.04,29.99,10,9,1,22,6,35,0.80,3,Rain-Thunderstorm,95
2013-8-25,88,81,74,76,73,71,94,80,68,30.14,30.10,30.06,10,10,10,18,7,24,T,1,Thunderstorm,67
2013-8-26,91,83,74,75,72,69,94,78,52,30.13,30.06,30.00,10,10,10,26,7,33,T,3,Rain-Thunderstorm,59
2013-8-27,89,81,73,75,73,70,94,79,56,30.05,30.01,29.97,10,10,2,17,5,21,0.19,3,Rain-Thunderstorm,88
2013-8-28,91,82,72,73,72,68,93,78,50,30.05,30.01,29.98,10,10,10,21,5,25,0.00,3,Thunderstorm,110
2013-8-29,92,83,73,76,72,68,93,72,49,30.03,29.99,29.94,10,10,4,17,5,23,0.16,2,Rain-Thunderstorm,11
2013-8-30,88,82,75,76,74,70,91,78,65,30.00,29.96,29.91,10,9,0,26,4,32,1.36,4,Rain-Thunderstorm,244
2013-8-31,88,82,76,75,73,70,94,77,63,29.99,29.94,29.90,10,10,9,14,5,17,T,2,Rain-Thunderstorm,230